AirNav   Pilot Hours Calculator
 
 817 users online  

8C4 Mathews Memorial Airport
Tipton, Iowa, USA

GOING TO TIPTON?


FAA INFORMATION EFFECTIVE 25 MARCH 2021

Location

FAA Identifier: 8C4
Lat/Long: 41-45-48.0750N 091-09-10.5690W
41-45.801250N 091-09.176150W
41.7633542,-91.1529358
(estimated)
Elevation: 840 ft. / 256 m (estimated)
Variation: 02E (1985)
From city: 2 miles SW of TIPTON, IA
Time zone: UTC -5 (UTC -6 during Standard Time)
Zip code: 52772

Airport Operations

Airport use: Open to the public
Activation date: 08/1969
Control tower: no
ARTCC: CHICAGO CENTER
FSS: FORT DODGE FLIGHT SERVICE STATION
NOTAMs facility: FOD (NOTAM-D service available)
Attendance:  UNATNDD
Wind indicator: lighted
Segmented circle: no
Lights: SS-SR

Airport Communications

CTAF: 122.9
CEDAR RAPIDS APPROACH: 119.7 [0600-2130]
CEDAR RAPIDS DEPARTURE: 119.7 [0600-2130]
WX ASOS at IOW (19 nm SW): 128.075 (319-339-9491)
  • APCH/DEP SVC PRVDD BY CHICAGO ARTCC ON FREQS 132.8/328.4 (CEDAR RAPIDS RCAG) WHEN CEDAR RAPIDS APCH CTL CLSD.

Nearby radio navigation aids

VOR radial/distance  VOR name  Freq  Var
IOWr050/25.3IOWA CITY VOR/DME116.2005E
CIDr100/29.3CEDAR RAPIDS VOR/DME114.1005E
CVAr272/30.2DAVENPORT VORTAC113.8004E
MZVr314/35.2MOLINE VOR/DME114.4005E

Airport Services

Fuel available: 100LL
Parking: tiedowns
Airframe service: NONE
Powerplant service: NONE
Bottled oxygen: NONE
Bulk oxygen: NONE

Runway Information

Runway 11/29

Dimensions: 3000 x 60 ft. / 914 x 18 m
Surface: concrete, in fair condition
Runway edge lights: medium intensity
RUNWAY 11  RUNWAY 29
Latitude: 41-45.887167N41-45.715500N
Longitude: 091-09.485500W091-08.866833W
Elevation: 840.0 ft.840.0 ft.
Traffic pattern: leftleft
Runway heading: 108 magnetic, 110 true288 magnetic, 290 true
Markings: basic, in good conditionbasic, in good condition
Runway end identifier lights: yes
Touchdown point: yes, no lightsyes, no lights
Obstructions: 70 ft. trees, 3042 ft. from runway, 7 ft. right of centerline, 40:1 slope to clear20 ft. road, 450 ft. from runway, 150 ft. right of centerline, 12:1 slope to clear

Airport Ownership and Management from official FAA records

Ownership: Publicly-owned
Owner: CITY OF TIPTON
407 LYNN ST.
TIPTON, IA 52772
Phone 563-886-6187
BRIAN WAGNER - CITY ADMINISTRATOR.
Manager: MAX COPPESS
303 2ND AVENUE
STANWOOD, IA 52337
Phone 563-212-3308
OR 563-886-6187

Airport Operational Statistics

Aircraft based on the field: 13
Single engine airplanes: 13
    
Aircraft operations: avg 86/week *
60% local general aviation
39% transient general aviation
1% military
* for 12-month period ending 10 December 2020

Additional Remarks

RY 29 IS CALM WIND RY.
DEER AND WATERFOWL ON AND INVOF OF ARPT.
FOR CD CTC CHICAGO ARTCC AT 630-906-8921.

Instrument Procedures

NOTE: All procedures below are presented as PDF files. If you need a reader for these files, you should download the free Adobe Reader.

NOT FOR NAVIGATION. Please procure official charts for flight.
FAA instrument procedures published for use from 25 March 2021 at 0901Z to 22 April 2021 at 0900z.

 
IAPs - Instrument Approach Procedures
RNAV (GPS) RWY 11   download (187KB)
VOR RWY 11   download (198KB)
NOTE: Special Take-Off Minimums/Departure Procedures apply   download (158KB)

Other nearby airports with instrument procedures:

KIOW - Iowa City Municipal Airport (19 nm SW)
KMUT - Muscatine Municipal Airport (24 nm S)
KOQW - Maquoketa Municipal Airport (25 nm NE)
KCID - The Eastern Iowa Airport (26 nm W)
KDVN - Davenport Municipal Airport (27 nm E)
 
Loc | Ops | Rwys | IFR | FBO | Links
Com | Nav | Svcs | Stats | Notes
Area around 8C4 (Mathews Memorial Airport)
 
Road maps at: MapQuest Bing Google
 
Aerial photo
WARNING: Photo may not be current or correct
Aerial photo of 8C4 (Mathews Memorial Airport)
Photo taken 16-Jun-2010
looking east.

Do you have a better or more recent aerial photo of Mathews Memorial Airport that you would like to share? If so, please send us your photo.

 
Sectional chart

 
Airport distance calculator
Flying to Mathews Memorial Airport? Find the distance to fly.

From to 8C4

Sunrise and sunset
Times for 10-Apr-2021
 Local
(UTC-5)
 Zulu
(UTC)
Morning civil twilight06:0511:05
Sunrise06:3311:33
Sunset19:3800:38
Evening civil twilight20:0701:07

Current date and time
Zulu (UTC)  11-Apr-2021 03:12:37
Local (UTC-5)  10-Apr-2021 22:12:37
 
METAR
KIOW 
19nm SW 
110252Z AUTO 34016G27KT 5SM RA BKN012 OVC025 08/06 A2947 RMK AO2 PK WND 34028/0158 SLP980 P0015 60045 T00830056 50004
KMUT 
24nm S 
110255Z AUTO 34018G27KT 6SM -RA BKN009 OVC014 08/08 A2942 RMK AO2
KCID 
26nm W 
110252Z 34021G28KT 7SM -RA BKN012 OVC040 07/06 A2946 RMK AO2 PK WND 33032/0236 SLP980 P0007 60016 T00720056 50000
KDVN 
27nm E 
110252Z AUTO 35019KT 4SM RA BR BKN008 OVC012 09/08 A2939 RMK AO2 PK WND 36027/0249 SLP950 P0006 60013 T00940083 50001
KMXO 
27nm N 
110255Z AUTO 34017KT 4SM -RA BKN009 OVC014 08/08 A2944 RMK AO2 P0007
KMLI 
34nm SE 
110252Z 35014G21KT 10SM -RA BKN010 OVC017 11/08 A2934 RMK AO2 SLP938 P0003 60007 T01060083 53001
KCWI 
38nm E 
110256Z AUTO 36013KT 8SM -RA OVC007 09/09 A2938 RMK AO2 CIG 005V010 SLP953 P0006 60017 T00940094 50000
KAWG 
38nm SW 
110255Z AUTO RMK AO2 PNO PWINO
TAF
KCID 
26nm W 
110204Z 1102/1124 36019G28KT P6SM -RA OVC012 TEMPO 1102/1104 4SM RA FM110400 33018G27KT 5SM -RA BR OVC009 FM110900 32017G26KT P6SM OVC012 FM111400 31015G23KT P6SM OVC015 FM111900 31014G20KT P6SM SCT025
NOTAMs
Click for the latest NOTAMs
NOTAMs are issued by the DoD/FAA and will open in a separate window not controlled by AirNav.

 

 
 

FBO, Fuel Providers, and Aircraft Ground Support

  
 Business Name 
 
 Contact 
 
 Services / Description 
 
Fuel Prices
 
Comments
  
Mathews Memorial Airport 563-886-3559
no information available

If you are affiliated with Mathews Memorial Airport and would like to show here your services, contact info, web link, logo, and more, click here
100LL
SS $4.15 
 Updated 01-Apr-2021
 
   write
SS=Self service
Update Fuel Prices
 

Would you like to see your business listed on this page?

 If your business provides an interesting product or service to pilots, flight crews, aircraft, or users of the Mathews Memorial Airport, you should consider listing it here.  To start the listing process, click on the button below
 
Add a business
 

Other Pages about Mathews Memorial Airport

www.tiptoniowa.org/airport.htm
Page from the Iowa Airport Directory
 
Update a link
 
Copyright © AirNav, LLC. All rights reserved. Privacy Policy  Contact